| time (UTC) | temp C | wind direction | speed KPH | gust KPH | rain 1hr cm | rain 24hr cm | rain mn cm | humidity % | barometer mb |
| 20260504024516 | 10 | 243 | 0.0 | 0.0 | 0.00 | 0.00 | 0.00 | 73 | 1017.2 |
| 20260504024014 | 10 | 243 | 0.0 | 0.0 | 0.00 | 0.00 | 0.00 | 73 | 1017.2 |
| 20260504023514 | 10 | 243 | 0.0 | 0.0 | 0.00 | 0.00 | 0.00 | 73 | 1017.2 |
| 20260504023014 | 10 | 243 | 0.0 | 0.0 | 0.00 | 0.00 | 0.00 | 73 | 1017.3 |
| 20260504022518 | 11 | 243 | 0.0 | 0.0 | 0.00 | 0.00 | 0.00 | 73 | 1017.3 |
| 20260504022014 | 11 | 243 | 0.0 | 0.0 | 0.00 | 0.00 | 0.00 | 73 | 1017.2 |
| 20260504021513 | 11 | 243 | 0.0 | 0.0 | 0.00 | 0.00 | 0.00 | 72 | 1017.1 |
| 20260504021013 | 11 | 243 | 0.0 | 0.0 | 0.00 | 0.00 | 0.00 | 71 | 1017.0 |
| 20260504020514 | 11 | 243 | 0.0 | 0.0 | 0.00 | 0.00 | 0.00 | 71 | 1017.0 |
| 20260504020014 | 11 | 243 | 0.0 | 0.0 | 0.00 | 0.00 | 0.00 | 72 | 1017.0 |
| 20260504015513 | 11 | 243 | 0.0 | 0.0 | 0.00 | 0.00 | 0.00 | 69 | 1017.0 |
| 20260504015017 | 11 | 243 | 0.0 | 0.0 | 0.00 | 0.00 | 0.00 | 69 | 1016.9 |
| 20260504014512 | 11 | 243 | 0.0 | 0.0 | 0.00 | 0.00 | 0.00 | 69 | 1016.9 |
| 20260504014017 | 12 | 243 | 0.0 | 0.0 | 0.00 | 0.00 | 0.00 | 67 | 1017.0 |
| 20260504013514 | 12 | 243 | 0.0 | 0.0 | 0.00 | 0.00 | 0.00 | 66 | 1017.1 |
| 20260504013019 | 12 | 243 | 0.0 | 0.0 | 0.00 | 0.00 | 0.00 | 66 | 1017.0 |
| 20260504012512 | 12 | 243 | 0.0 | 0.0 | 0.00 | 0.00 | 0.00 | 66 | 1017.0 |
| 20260504012018 | 12 | 243 | 0.0 | 0.0 | 0.00 | 0.00 | 0.00 | 67 | 1017.0 |
| 20260504011512 | 12 | 243 | 0.0 | 0.0 | 0.00 | 0.00 | 0.00 | 67 | 1017.0 |
| 20260504011013 | 12 | 243 | 0.0 | 0.0 | 0.00 | 0.00 | 0.00 | 66 | 1017.0 |
| 20260504010511 | 12 | 243 | 0.0 | 0.0 | 0.00 | 0.00 | 0.00 | 65 | 1016.9 |
| 20260504010011 | 12 | 243 | 0.0 | 0.0 | 0.00 | 0.00 | 0.00 | 64 | 1016.8 |
| 20260504005511 | 13 | 243 | 0.0 | 0.0 | 0.00 | 0.00 | 0.00 | 64 | 1016.8 |
| 20260504005011 | 13 | 243 | 0.0 | 0.0 | 0.00 | 0.00 | 0.00 | 64 | 1016.7 |
| 20260504004511 | 13 | 243 | 0.0 | 0.0 | 0.00 | 0.00 | 0.00 | 63 | 1016.6 |
| 20260504004011 | 13 | 243 | 0.0 | 0.0 | 0.00 | 0.00 | 0.00 | 60 | 1016.6 |
| 20260504003511 | 13 | 243 | 0.0 | 0.0 | 0.00 | 0.00 | 0.00 | 59 | 1016.6 |
| 20260504003015 | 14 | 243 | 0.0 | 0.0 | 0.00 | 0.00 | 0.00 | 59 | 1016.6 |
| 20260504002510 | 14 | 243 | 0.0 | 0.0 | 0.00 | 0.00 | 0.00 | 59 | 1016.5 |
| 20260504002009 | 14 | 243 | 0.0 | 0.0 | 0.00 | 0.00 | 0.00 | 57 | 1016.5 |
| 20260504001511 | 15 | 243 | 0.0 | 0.0 | 0.00 | 0.00 | 0.00 | 55 | 1016.6 |
| 20260504001009 | 15 | 243 | 0.0 | 0.0 | 0.00 | 0.00 | 0.00 | 57 | 1016.7 |
| 20260504000508 | 15 | 243 | 0.0 | 0.0 | 0.00 | 0.00 | 0.00 | 53 | 1016.7 |
| 20260504000009 | 15 | 243 | 0.0 | 0.0 | 0.00 | 0.00 | 0.00 | 53 | 1016.8 |
| 20260503235507 | 16 | 228 | 0.0 | 0.0 | 0.00 | 0.00 | 0.00 | 52 | 1016.7 |
| 20260503235007 | 16 | 228 | 0.0 | 3.2 | 0.00 | 0.00 | 0.00 | 51 | 1016.8 |
| 20260503234506 | 16 | 228 | 0.0 | 6.4 | 0.00 | 0.00 | 0.00 | 50 | 1017.0 |
| 20260503234007 | 16 | 227 | 0.0 | 6.4 | 0.00 | 0.00 | 0.00 | 49 | 1017.0 |
| 20260503233505 | 16 | 252 | 0.0 | 6.4 | 0.00 | 0.00 | 0.00 | 48 | 1017.0 |
| 20260503233006 | 16 | 269 | 0.0 | 6.4 | 0.00 | 0.00 | 0.00 | 49 | 1017.0 |
| 20260503232505 | 16 | 213 | 0.0 | 6.4 | 0.00 | 0.00 | 0.00 | 48 | 1017.1 |
| 20260503232005 | 16 | 186 | 0.0 | 6.4 | 0.00 | 0.00 | 0.00 | 48 | 1017.2 |
| 20260503231504 | 16 | 230 | 1.6 | 11.3 | 0.00 | 0.00 | 0.00 | 47 | 1017.1 |
| 20260503231004 | 16 | 192 | 0.0 | 11.3 | 0.00 | 0.00 | 0.00 | 48 | 1017.2 |
| 20260503230508 | 16 | 184 | 0.0 | 4.8 | 0.00 | 0.00 | 0.00 | 45 | 1017.3 |
| 20260503230003 | 17 | 223 | 0.0 | 6.4 | 0.00 | 0.00 | 0.00 | 46 | 1017.3 |
| 20260503225503 | 17 | 259 | 1.6 | 11.3 | 0.00 | 0.00 | 0.00 | 46 | 1017.4 |
| 20260503225002 | 17 | 132 | 0.0 | 12.9 | 0.00 | 0.00 | 0.00 | 44 | 1017.4 |
| 20260503224502 | 17 | 267 | 1.6 | 12.9 | 0.00 | 0.00 | 0.00 | 45 | 1017.4 |
| 20260503224008 | 17 | 276 | 1.6 | 6.4 | 0.00 | 0.00 | 0.00 | 46 | 1017.4 |
| 20260503223503 | 17 | 263 | 1.6 | 6.4 | 0.00 | 0.00 | 0.00 | 43 | 1017.3 |
| 20260503223001 | 17 | 267 | 1.6 | 6.4 | 0.00 | 0.00 | 0.00 | 43 | 1017.4 |
| 20260503222600 | 17 | 225 | 1.6 | 4.8 | 0.00 | 0.00 | 0.00 | 47 | 1017.4 |
| 20260503222100 | 17 | 246 | 0.0 | 8.0 | 0.00 | 0.00 | 0.00 | 45 | 1017.5 |
| 20260503221603 | 17 | 251 | 1.6 | 8.0 | 0.00 | 0.00 | 0.00 | 43 | 1017.4 |
| 20260503221103 | 17 | 275 | 1.6 | 6.4 | 0.00 | 0.00 | 0.00 | 44 | 1017.6 |
| 20260503220558 | 17 | 194 | 1.6 | 6.4 | 0.00 | 0.00 | 0.00 | 39 | 1017.6 |
| 20260503220058 | 17 | 173 | 0.0 | 11.3 | 0.00 | 0.00 | 0.00 | 41 | 1017.7 |
| 20260503215557 | 18 | 207 | 0.0 | 8.0 | 0.00 | 0.00 | 0.00 | 42 | 1017.8 |
| 20260503215056 | 18 | 275 | 1.6 | 8.0 | 0.00 | 0.00 | 0.00 | 41 | 1017.7 |
| 20260503214557 | 18 | 257 | 1.6 | 11.3 | 0.00 | 0.00 | 0.00 | 40 | 1017.8 |
| 20260503214056 | 18 | 275 | 0.0 | 11.3 | 0.00 | 0.00 | 0.00 | 39 | 1017.7 |
| 20260503213559 | 18 | 260 | 1.6 | 6.4 | 0.00 | 0.00 | 0.00 | 39 | 1017.8 |
| 20260503213055 | 19 | 130 | 0.0 | 12.9 | 0.00 | 0.00 | 0.00 | 38 | 1017.8 |
| 20260503212555 | 20 | 224 | 3.2 | 14.5 | 0.00 | 0.00 | 0.00 | 40 | 1017.9 |
| 20260503212054 | 20 | 156 | 0.0 | 14.5 | 0.00 | 0.00 | 0.00 | 39 | 1017.9 |
| 20260503211555 | 21 | 219 | 1.6 | 6.4 | 0.00 | 0.00 | 0.00 | 38 | 1018.1 |
| 20260503211056 | 21 | 223 | 1.6 | 6.4 | 0.00 | 0.00 | 0.00 | 36 | 1018.1 |
| 20260503210554 | 21 | 194 | 1.6 | 8.0 | 0.00 | 0.00 | 0.00 | 36 | 1018.1 |
| 20260503210054 | 21 | 200 | 1.6 | 12.9 | 0.00 | 0.00 | 0.00 | 39 | 1018.1 |
| 20260503205552 | 21 | 184 | 3.2 | 12.9 | 0.00 | 0.00 | 0.00 | 40 | 1018.2 |
| 20260503205053 | 21 | 240 | 4.8 | 11.3 | 0.00 | 0.00 | 0.00 | 38 | 1018.2 |
| 20260503204554 | 21 | 269 | 1.6 | 11.3 | 0.00 | 0.00 | 0.00 | 39 | 1018.2 |
| 20260503204050 | 20 | 281 | 1.6 | 6.4 | 0.00 | 0.00 | 0.00 | 37 | 1018.3 |
| 20260503203554 | 20 | 203 | 1.6 | 4.8 | 0.00 | 0.00 | 0.00 | 41 | 1018.5 |
| 20260503203050 | 20 | 154 | 0.0 | 6.4 | 0.00 | 0.00 | 0.00 | 40 | 1018.4 |
| 20260503202550 | 20 | 203 | 3.2 | 8.0 | 0.00 | 0.00 | 0.00 | 41 | 1018.6 |
| 20260503202051 | 20 | 345 | 0.0 | 9.7 | 0.00 | 0.00 | 0.00 | 42 | 1018.7 |
| 20260503201549 | 20 | 249 | 3.2 | 9.7 | 0.00 | 0.00 | 0.00 | 38 | 1018.8 |
| 20260503201051 | 20 | 302 | 0.0 | 8.0 | 0.00 | 0.00 | 0.00 | 40 | 1018.8 |
| 20260503200547 | 20 | 159 | 3.2 | 8.0 | 0.00 | 0.00 | 0.00 | 38 | 1019.0 |
| 20260503200047 | 20 | 235 | 1.6 | 6.4 | 0.00 | 0.00 | 0.00 | 38 | 1019.0 |
| 20260503195545 | 20 | 248 | 1.6 | 6.4 | 0.00 | 0.00 | 0.00 | 36 | 1019.2 |
| 20260503195045 | 20 | 313 | 1.6 | 4.8 | 0.00 | 0.00 | 0.00 | 40 | 1019.2 |
| 20260503194547 | 20 | 284 | 1.6 | 4.8 | 0.00 | 0.00 | 0.00 | 46 | 1019.3 |
| 20260503194045 | 20 | 338 | 1.6 | 6.4 | 0.00 | 0.00 | 0.00 | 42 | 1019.2 |
| 20260503193545 | 20 | 351 | 1.6 | 6.4 | 0.00 | 0.00 | 0.00 | 43 | 1019.3 |
| 20260503193046 | 20 | 348 | 0.0 | 6.4 | 0.00 | 0.00 | 0.00 | 42 | 1019.5 |
| 20260503192544 | 20 | 280 | 1.6 | 6.4 | 0.00 | 0.00 | 0.00 | 41 | 1019.5 |
| 20260503192044 | 20 | 86 | 1.6 | 4.8 | 0.00 | 0.00 | 0.00 | 46 | 1019.5 |
| 20260503191543 | 20 | 218 | 1.6 | 4.8 | 0.00 | 0.00 | 0.00 | 42 | 1019.5 |
| 20260503191044 | 19 | 245 | 1.6 | 4.8 | 0.00 | 0.00 | 0.00 | 45 | 1019.4 |
| 20260503190544 | 19 | 342 | 1.6 | 12.9 | 0.00 | 0.00 | 0.00 | 47 | 1019.5 |
| 20260503190041 | 19 | 225 | 1.6 | 12.9 | 0.00 | 0.00 | 0.00 | 42 | 1019.6 |
| 20260503185540 | 19 | 227 | 1.6 | 11.3 | 0.00 | 0.00 | 0.00 | 46 | 1019.5 |
| 20260503185040 | 19 | 210 | 3.2 | 11.3 | 0.00 | 0.00 | 0.00 | 40 | 1019.6 |
| 20260503184557 | 19 | 291 | 1.6 | 6.4 | 0.00 | 0.00 | 0.00 | 43 | 1019.7 |
| 20260503184039 | 19 | 267 | 1.6 | 6.4 | 0.00 | 0.00 | 0.00 | 46 | 1019.7 |
| 20260503183538 | 18 | 227 | 1.6 | 6.4 | 0.00 | 0.00 | 0.00 | 41 | 1019.8 |
| 20260503183037 | 18 | 213 | 1.6 | 6.4 | 0.00 | 0.00 | 0.00 | 47 | 1019.8 |
| 20260503182536 | 18 | 265 | 1.6 | 6.4 | 0.00 | 0.00 | 0.00 | 47 | 1019.9 |
| 20260503182035 | 18 | 327 | 1.6 | 6.4 | 0.00 | 0.00 | 0.00 | 44 | 1020.2 |
| 20260503181535 | 18 | 30 | 1.6 | 6.4 | 0.00 | 0.00 | 0.00 | 48 | 1020.2 |
| 20260503181034 | 18 | 227 | 1.6 | 3.2 | 0.00 | 0.00 | 0.00 | 42 | 1020.1 |
| 20260503180535 | 18 | 338 | 0.0 | 6.4 | 0.00 | 0.00 | 0.00 | 44 | 1020.2 |
| 20260503180037 | 18 | 175 | 1.6 | 6.4 | 0.00 | 0.00 | 0.00 | 43 | 1020.3 |
| 20260503175532 | 18 | 286 | 0.0 | 4.8 | 0.00 | 0.00 | 0.00 | 47 | 1020.3 |
| 20260503175035 | 17 | 142 | 1.6 | 4.8 | 0.00 | 0.00 | 0.00 | 47 | 1020.3 |
| 20260503174533 | 17 | 16 | 0.0 | 8.0 | 0.00 | 0.00 | 0.00 | 42 | 1020.4 |
| 20260503174032 | 17 | 228 | 4.8 | 8.0 | 0.00 | 0.00 | 0.00 | 43 | 1020.5 |
| 20260503173529 | 17 | 232 | 1.6 | 8.0 | 0.00 | 0.00 | 0.00 | 47 | 1020.5 |
| 20260503173034 | 17 | 191 | 1.6 | 8.0 | 0.00 | 0.00 | 0.00 | 45 | 1020.7 |
| 20260503172528 | 17 | 203 | 3.2 | 8.0 | 0.00 | 0.00 | 0.00 | 42 | 1020.8 |
| 20260503172027 | 17 | 241 | 1.6 | 6.4 | 0.00 | 0.00 | 0.00 | 50 | 1020.8 |
| 20260503171529 | 16 | 163 | 1.6 | 8.0 | 0.00 | 0.00 | 0.00 | 47 | 1020.8 |
| 20260503171027 | 17 | 173 | 1.6 | 8.0 | 0.00 | 0.00 | 0.00 | 42 | 1020.8 |
| 20260503170526 | 17 | 16 | 0.0 | 6.4 | 0.00 | 0.00 | 0.00 | 46 | 1020.9 |
| 20260503151003 | 14 | 321 | 0.0 | 4.8 | 0.00 | 0.00 | 0.00 | 49 | 1021.9 |
| 20260503150501 | 13 | 102 | 0.0 | 4.8 | 0.00 | 0.00 | 0.00 | 50 | 1022.1 |
| 20260503131039 | 8 | 86 | 0.0 | 4.8 | 0.00 | 0.00 | 0.00 | 77 | 1021.9 |
| 20260503130539 | 8 | 89 | 0.0 | 4.8 | 0.00 | 0.00 | 0.00 | 76 | 1022.0 |
| 20260503110523 | 5 | 11 | 0.0 | 0.0 | 0.00 | 0.00 | 0.00 | 90 | 1020.7 |
| 20260503090504 | 6 | 11 | 0.0 | 0.0 | 0.00 | 0.00 | 0.00 | 82 | 1019.7 |
| 20260503081600 | 7 | 11 | 0.0 | 0.0 | 0.00 | 0.00 | 0.00 | 78 | 1019.3 |
| 20260503081054 | 7 | 11 | 0.0 | 0.0 | 0.00 | 0.00 | 0.00 | 78 | 1019.2 |
| 20260503080553 | 8 | 11 | 0.0 | 0.0 | 0.00 | 0.00 | 0.00 | 76 | 1019.1 |
| 20260503072544 | 9 | 11 | 0.0 | 0.0 | 0.00 | 0.00 | 0.00 | 72 | 1018.7 |
| 20260503072046 | 9 | 11 | 0.0 | 0.0 | 0.00 | 0.00 | 0.00 | 72 | 1018.7 |
| 20260503071603 | 9 | 11 | 0.0 | 0.0 | 0.00 | 0.00 | 0.00 | 72 | 1018.6 |
| 20260503071042 | 9 | 11 | 0.0 | 0.0 | 0.00 | 0.00 | 0.00 | 72 | 1018.6 |
| 20260503070542 | 9 | 11 | 0.0 | 0.0 | 0.00 | 0.00 | 0.00 | 73 | 1018.6 |
| 20260503055036 | 10 | 325 | 0.0 | 0.0 | 0.00 | 0.00 | 0.00 | 72 | 1018.6 |
| 20260503054544 | 10 | 325 | 0.0 | 0.0 | 0.00 | 0.00 | 0.00 | 72 | 1018.6 |
| 20260503054036 | 10 | 325 | 0.0 | 0.0 | 0.00 | 0.00 | 0.00 | 72 | 1018.5 |
| 20260503053536 | 10 | 325 | 0.0 | 0.0 | 0.00 | 0.00 | 0.00 | 71 | 1018.5 |
| 20260503053039 | 10 | 325 | 0.0 | 0.0 | 0.00 | 0.00 | 0.00 | 72 | 1018.5 |
| 20260503052535 | 10 | 326 | 0.0 | 0.0 | 0.00 | 0.00 | 0.00 | 72 | 1018.5 |
| 20260503052037 | 10 | 325 | 0.0 | 0.0 | 0.00 | 0.00 | 0.00 | 72 | 1018.5 |
| 20260503051534 | 10 | 326 | 0.0 | 0.0 | 0.00 | 0.00 | 0.00 | 72 | 1018.5 |
| 20260503051036 | 10 | 325 | 0.0 | 0.0 | 0.00 | 0.00 | 0.00 | 71 | 1018.5 |
| 20260503050533 | 10 | 325 | 0.0 | 0.0 | 0.00 | 0.00 | 0.00 | 71 | 1018.4 |
| 20260503050032 | 10 | 326 | 0.0 | 0.0 | 0.00 | 0.00 | 0.00 | 70 | 1018.4 |
| 20260503045532 | 10 | 326 | 0.0 | 0.0 | 0.00 | 0.00 | 0.00 | 69 | 1018.4 |
| 20260503045029 | 10 | 325 | 0.0 | 0.0 | 0.00 | 0.00 | 0.00 | 68 | 1018.3 |
| 20260503044543 | 10 | 325 | 0.0 | 0.0 | 0.00 | 0.00 | 0.00 | 67 | 1018.2 |
| 20260503044031 | 11 | 325 | 0.0 | 0.0 | 0.00 | 0.00 | 0.00 | 67 | 1018.2 |
| 20260503043527 | 11 | 326 | 0.0 | 0.0 | 0.00 | 0.00 | 0.00 | 66 | 1018.1 |
| 20260503043127 | 11 | 326 | 0.0 | 4.8 | 0.00 | 0.00 | 0.00 | 66 | 1018.2 |
| 20260503042525 | 11 | 326 | 0.0 | 4.8 | 0.00 | 0.00 | 0.00 | 65 | 1018.2 |
| 20260503042025 | 11 | 349 | 0.0 | 4.8 | 0.00 | 0.00 | 0.00 | 65 | 1018.2 |
| 20260503041525 | 11 | 24 | 0.0 | 4.8 | 0.00 | 0.00 | 0.00 | 65 | 1018.2 |
| 20260503041024 | 11 | 355 | 0.0 | 6.4 | 0.00 | 0.00 | 0.00 | 65 | 1018.1 |
| 20260503040523 | 11 | 146 | 1.6 | 6.4 | 0.00 | 0.00 | 0.00 | 64 | 1018.0 |
| 20260503040026 | 11 | 9 | 0.0 | 3.2 | 0.00 | 0.00 | 0.00 | 65 | 1018.0 |
| 20260503035522 | 11 | 355 | 0.0 | 3.2 | 0.00 | 0.00 | 0.00 | 65 | 1018.0 |
| 20260503035021 | 11 | 63 | 0.0 | 3.2 | 0.00 | 0.00 | 0.00 | 66 | 1018.0 |
| 20260503034521 | 11 | 355 | 0.0 | 4.8 | 0.00 | 0.00 | 0.00 | 66 | 1018.0 |
| 20260503034020 | 11 | 355 | 0.0 | 8.0 | 0.00 | 0.00 | 0.00 | 67 | 1018.1 |
| 20260503033524 | 11 | 249 | 0.0 | 8.0 | 0.00 | 0.00 | 0.00 | 65 | 1018.2 |
| 20260503033021 | 11 | 272 | 0.0 | 0.0 | 0.00 | 0.00 | 0.00 | 65 | 1018.1 |
| 20260503032520 | 11 | 272 | 0.0 | 1.6 | 0.00 | 0.00 | 0.00 | 65 | 1018.1 |
| 20260503032023 | 11 | 272 | 0.0 | 4.8 | 0.00 | 0.00 | 0.00 | 65 | 1018.0 |
| 20260503031527 | 11 | 5 | 0.0 | 4.8 | 0.00 | 0.00 | 0.00 | 65 | 1018.0 |
| 20260503031019 | 11 | 360 | 0.0 | 4.8 | 0.00 | 0.00 | 0.00 | 64 | 1017.9 |
| 20260503030518 | 11 | 34 | 0.0 | 4.8 | 0.00 | 0.00 | 0.00 | 63 | 1017.9 |
| 20260503030019 | 11 | 16 | 0.0 | 1.6 | 0.00 | 0.00 | 0.00 | 65 | 1017.9 |
| 20260503025517 | 11 | 17 | 0.0 | 0.0 | 0.00 | 0.00 | 0.00 | 64 | 1017.8 |
| 20260503025016 | 11 | 17 | 0.0 | 1.6 | 0.00 | 0.00 | 0.00 | 64 | 1017.7 |